Torna al catalogo

STARLINK-35561

AttivoComunicazioniVLEO
NORAD 66105·PAYLOAD·🇺🇸 United States

Lanciato Oct 19, 2025 da Vandenberg Space Force Base

Loading…

Prossimi Passaggi (prossime 24 ore)

TLE

AggiornatoSource: CelesTrak SupGP

Epoca: Sep 14, 2026, 20:32 UTC

1 66105C 25236V   26257.85604167 -.00006859  00000+0 -20270-3 0  2575
2 66105  53.1573 302.3016 0001313  82.5441  71.3209 15.34384719    19

Traccia STARLINK-35561 in tempo reale con AllMySat

Download on the App Store